Flag for Hungary Weather past 2 weeks in Szeged, Hungary

Now
58 °F

Passing clouds.


Feels Like: 58 °F
Forecast: 63 / 87 °F
Wind: 1 mph from Northwest

Location: Szeged

Current Time: Jul 25, 2014 at 6:26:15 AM

Latest Report: Jul 25, 2014 at 5:00 AM


Visibility: 13 mi

Pressure: 29.90 "Hg

Humidity: 93%

Dew point: 56 °F

Location of SzegedLocation

Historic Weather in Szeged — Graph

°F

Szeged temperature yesterday

Maximum temperature yesterday: 81 °F (at 3:00 PM)
Minimum temperature yesterday: 58 °F (at 6:00 AM)
Average temperature yesterday: 71 °F

Past Weeks' High & Low Weather Summary

 TemperatureHumidityPressure
High90 °F (Jul 21, 3:00 PM)95% (Jul 11, 5:00 AM)30.03 "Hg (Jul 11, 5:00 AM)
Low54 °F (Jul 10, 5:00 AM)29% (Jul 20, 2:00 PM)29.59 "Hg (Jul 11, 6:00 PM)
Average72 °F71%29.86 "Hg
* Reported Jul 10 5:00 AM — Jul 25 5:00 AM, Szeged, Weather by CustomWeather, © 2014

Note: Actual official high and low records may vary slightly from our data, if they occured in-between our weather recording intervals... More about our weather records

Advertising

Szeged weather history for previous 24 hours

 ConditionsComfort  
Time TempWeatherWind HumidityBarometerVisibility
5:00 AM
Jul 25
58 °FPassing clouds.1 mph93%29.90 "Hg12 mi
4:00 AM59 °FClear.1 mph93%29.89 "Hg12 mi
3:00 AM59 °FClear.1 mph92%29.88 "Hg12 mi
2:00 AM61 °FClear.1 mph89%29.88 "Hg12 mi
1:00 AM61 °FClear.1 mph91%29.88 "Hg12 mi
12:00 AM63 °FPassing clouds.1 mph88%29.89 "Hg12 mi
11:00 PM
Jul 24
64 °FPassing clouds.1 mph87%29.88 "Hg12 mi
10:00 PM66 °FPassing clouds.No wind84%29.87 "Hg12 mi
9:00 PM69 °FPassing clouds.1 mph79%29.85 "Hg14 mi
8:00 PM76 °FOvercast.3 mph53%29.83 "Hg19 mi
7:00 PM79 °FPartly sunny.5 mph48%29.82 "Hg25 mi
6:00 PM80 °FPartly sunny.6 mph43%29.82 "Hg31 mi
5:00 PM81 °FPartly sunny.5 mph42%29.81 "Hg31 mi
4:00 PM80 °FPartly sunny.5 mph45%29.82 "Hg31 mi
3:00 PM81 °FScattered clouds.5 mph47%29.82 "Hg31 mi
2:00 PM81 °FScattered clouds.5 mph44%29.82 "Hg31 mi
1:00 PM79 °FScattered clouds.5 mph51%29.81 "Hg31 mi
12:00 PM76 °FPartly sunny.5 mph55%29.81 "Hg31 mi
11:00 AM77 °FScattered clouds.3 mph58%29.81 "Hg28 mi
10:00 AM74 °FPassing clouds.3 mph63%29.81 "Hg25 mi
9:00 AM71 °FPassing clouds.2 mph71%29.81 "Hg25 mi
8:00 AM68 °FPassing clouds.3 mph77%29.81 "Hg31 mi
7:00 AM64 °FPassing clouds.No wind90%29.80 "Hg17 mi
6:00 AM58 °FFog.1 mph94%29.80 "Hg5 mi
Weather by CustomWeather, © 2014

See weather overviewHow to use our weather pages